When you browse on this site, cookies collect data to enhance your experience and personalize the content and advertising you see.
Visit our Privacy Policy to learn more. By continuing to use the site, you agree to this use of cookies and data.
EN

Hourly Weather Quito

Today, 6 July, Monday

Time Temperature Precipitation Wind Pressure Humidity
00:00 +10°C° 0 mm 1 mps 622 mmHg 49%
01:00 +9°C° 0 mm 1 mps 622 mmHg 53%
02:00 +9°C° 0 mm 1 mps 622 mmHg 54%
03:00 +8°C° 0 mm 1 mps 621 mmHg 54%
04:00 +7°C° 0 mm 2 mps 621 mmHg 55%
05:00 +7°C° 0 mm 2 mps 622 mmHg 53%
06:00 +8°C° 0 mm 1 mps 622 mmHg 51%
07:00 +8°C° 0 mm 1 mps 622 mmHg 49%
08:00 +12°C° 0 mm 2 mps 623 mmHg 40%
09:00 +16°C° 0 mm 3 mps 625 mmHg 31%
10:00 +20°C° 0 mm 4 mps 626 mmHg 22%
11:00 +21°C° 0 mm 4 mps 626 mmHg 20%
12:00 +22°C° 0 mm 3 mps 625 mmHg 17%
13:00 +25°C° 0 mm 3 mps 625 mmHg 15%
14:00 +25°C° 0 mm 3 mps 624 mmHg 15%
15:00 +25°C° 0 mm 2 mps 624 mmHg 15%
16:00 +25°C° 0 mm 2 mps 623 mmHg 15%
17:00 +20°C° 0 mm 2 mps 623 mmHg 20%
18:00 +18°C° 0 mm 1 mps 622 mmHg 24%
19:00 +14°C° 0 mm 1 mps 621 mmHg 29%
20:00 +13°C° 0 mm 1 mps 621 mmHg 30%
21:00 +12°C° 0 mm 1 mps 622 mmHg 31%
22:00 +12°C° 0 mm 1 mps 622 mmHg 33%
23:00 +11°C° 0 mm 1 mps 622 mmHg 36%

Tomorrow, 7 July, Tuesday

Time Temperature Precipitation Wind Pressure Humidity
00:00 +11°C° 0 mm 1 mps 622 mmHg 38%
01:00 +10°C° 0 mm 1 mps 621 mmHg 41%
02:00 +9°C° 0 mm 1 mps 621 mmHg 44%
03:00 +9°C° 0 mm 1 mps 621 mmHg 46%
04:00 +8°C° 0 mm 1 mps 621 mmHg 48%
05:00 +9°C° 0 mm 1 mps 621 mmHg 46%
06:00 +9°C° 0 mm 1 mps 621 mmHg 45%
07:00 +9°C° 0 mm 1 mps 622 mmHg 43%
08:00 +13°C° 0 mm 2 mps 623 mmHg 34%
09:00 +17°C° 0 mm 3 mps 624 mmHg 26%
10:00 +21°C° 0 mm 4 mps 625 mmHg 17%
11:00 +22°C° 0 mm 4 mps 625 mmHg 16%
12:00 +24°C° 0 mm 3 mps 624 mmHg 15%
13:00 +26°C° 0 mm 3 mps 624 mmHg 13%
14:00 +26°C° 0 mm 3 mps 623 mmHg 13%
15:00 +26°C° 0 mm 3 mps 623 mmHg 13%
16:00 +25°C° 0 mm 2 mps 622 mmHg 13%
17:00 +21°C° 0 mm 2 mps 621 mmHg 18%
18:00 +18°C° 0 mm 1 mps 621 mmHg 23%
19:00 +13°C° 0 mm 0 mps 620 mmHg 28%
20:00 +12°C° 0 mm 0 mps 620 mmHg 28%
21:00 +13°C° 0 mm 1 mps 620 mmHg 29%
22:00 +12°C° 0 mm 1 mps 621 mmHg 29%
23:00 +12°C° 0 mm 1 mps 620 mmHg 31%

Day after tomorrow, 8 July, Wednesday

Time Temperature Precipitation Wind Pressure Humidity
00:00 +11°C° 0 mm 1 mps 620 mmHg 33%
01:00 +10°C° 0 mm 1 mps 620 mmHg 35%
02:00 +10°C° 0 mm 1 mps 620 mmHg 37%
03:00 +9°C° 0 mm 1 mps 620 mmHg 39%
04:00 +9°C° 0 mm 1 mps 620 mmHg 40%
05:00 +9°C° 0 mm 1 mps 620 mmHg 40%
06:00 +10°C° 0 mm 1 mps 621 mmHg 39%
07:00 +10°C° 0 mm 1 mps 622 mmHg 39%
08:00 +14°C° 0 mm 2 mps 623 mmHg 32%
09:00 +18°C° 0 mm 2 mps 624 mmHg 25%
10:00 +22°C° 0 mm 3 mps 625 mmHg 18%
11:00 +25°C° 0 mm 3 mps 625 mmHg 16%
12:00 +26°C° 0 mm 2 mps 625 mmHg 14%
13:00 +28°C° 0 mm 2 mps 624 mmHg 13%
14:00 +28°C° 0 mm 2 mps 624 mmHg 12%
15:00 +28°C° 0 mm 1 mps 623 mmHg 12%
16:00 +27°C° 0 mm 1 mps 623 mmHg 12%
17:00 +24°C° 0 mm 1 mps 622 mmHg 17%
18:00 +20°C° 0 mm 1 mps 621 mmHg 21%
19:00 +15°C° 0 mm 1 mps 621 mmHg 25%
20:00 +14°C° 0 mm 1 mps 621 mmHg 26%
21:00 +13°C° 0 mm 0 mps 621 mmHg 26%
22:00 +12°C° 0 mm 0 mps 621 mmHg 27%
23:00 +12°C° 0 mm 0 mps 621 mmHg 27%

9 July, Thursday

Time Temperature Precipitation Wind Pressure Humidity
00:00 +13°C° 0 mm 1 mps 621 mmHg 27%
01:00 +12°C° 0 mm 1 mps 621 mmHg 27%
02:00 +12°C° 0 mm 1 mps 621 mmHg 28%
03:00 +11°C° 0 mm 1 mps 621 mmHg 29%
04:00 +11°C° 0 mm 1 mps 620 mmHg 30%
05:00 +11°C° 0 mm 1 mps 621 mmHg 30%
06:00 +12°C° 0 mm 1 mps 622 mmHg 30%
07:00 +12°C° 0 mm 1 mps 622 mmHg 30%
08:00 +16°C° 0 mm 1 mps 623 mmHg 25%
09:00 +22°C° 0 mm 1 mps 624 mmHg 20%
10:00 +26°C° 0 mm 2 mps 626 mmHg 15%
11:00 +27°C° 0 mm 2 mps 625 mmHg 14%
12:00 +29°C° 0 mm 2 mps 625 mmHg 13%
13:00 +30°C° 0 mm 2 mps 625 mmHg 12%
14:00 +30°C° 0 mm 2 mps 624 mmHg 12%
15:00 +29°C° 0 mm 2 mps 624 mmHg 12%
16:00 +29°C° 0 mm 2 mps 623 mmHg 12%
17:00 +25°C° 0 mm 1 mps 622 mmHg 18%
18:00 +21°C° 0 mm 1 mps 621 mmHg 24%
19:00 +15°C° 0 mm 0 mps 621 mmHg 29%
20:00 +15°C° 0 mm 0 mps 621 mmHg 30%
21:00 +15°C° 0 mm 1 mps 621 mmHg 31%
22:00 +15°C° 0 mm 1 mps 622 mmHg 32%
23:00 +15°C° 0 mm 1 mps 622 mmHg 32%

10 July, Friday

Time Temperature Precipitation Wind Pressure Humidity
00:00 +15°C° 0 mm 1 mps 622 mmHg 32%
01:00 +15°C° 0 mm 1 mps 622 mmHg 32%
02:00 +14°C° 0 mm 1 mps 621 mmHg 34%
03:00 +13°C° 0 mm 1 mps 621 mmHg 37%
04:00 +12°C° 0 mm 1 mps 620 mmHg 40%
05:00 +12°C° 0 mm 1 mps 621 mmHg 39%
06:00 +12°C° 0 mm 1 mps 621 mmHg 38%
07:00 +12°C° 0 mm 1 mps 622 mmHg 37%
08:00 +17°C° 0 mm 2 mps 623 mmHg 30%
09:00 +21°C° 0 mm 2 mps 624 mmHg 23%
10:00 +26°C° 0 mm 2 mps 626 mmHg 16%
11:00 +28°C° 0 mm 2 mps 625 mmHg 15%
12:00 +29°C° 0 mm 2 mps 625 mmHg 14%
13:00 +31°C° 0 mm 1 mps 625 mmHg 13%
14:00 +31°C° 0 mm 1 mps 624 mmHg 14%
15:00 +30°C° 0 mm 2 mps 624 mmHg 14%
16:00 +30°C° 0 mm 2 mps 623 mmHg 14%
17:00 +26°C° 0 mm 1 mps 622 mmHg 19%
18:00 +22°C° 0 mm 1 mps 621 mmHg 25%
19:00 +19°C° 0 mm 1 mps 620 mmHg 30%
20:00 +18°C° 0 mm 1 mps 621 mmHg 30%
21:00 +18°C° 0 mm 1 mps 621 mmHg 31%
22:00 +16°C° 0 mm 1 mps 621 mmHg 32%
23:00 +16°C° 0 mm 1 mps 621 mmHg 32%

11 July, Saturday

Time Temperature Precipitation Wind Pressure Humidity
00:00 +16°C° 0 mm 1 mps 621 mmHg 32%
01:00 +16°C° 0 mm 1 mps 621 mmHg 32%
02:00 +14°C° 0 mm 1 mps 621 mmHg 35%
03:00 +13°C° 0 mm 1 mps 620 mmHg 38%
04:00 +12°C° 0 mm 1 mps 620 mmHg 41%
05:00 +12°C° 0 mm 1 mps 621 mmHg 39%
06:00 +13°C° 0 mm 1 mps 621 mmHg 37%
07:00 +14°C° 0 mm 1 mps 622 mmHg 35%
08:00 +18°C° 0 mm 2 mps 623 mmHg 30%
09:00 +23°C° 0 mm 2 mps 624 mmHg 24%
10:00 +27°C° 0 mm 3 mps 625 mmHg 18%
11:00 +28°C° 0 mm 3 mps 625 mmHg 18%
12:00 +29°C° 0 mm 3 mps 625 mmHg 17%
13:00 +30°C° 0 mm 3 mps 624 mmHg 16%
14:00 +30°C° 0 mm 3 mps 624 mmHg 16%
15:00 +30°C° 0 mm 3 mps 623 mmHg 16%
16:00 +30°C° 0 mm 2 mps 623 mmHg 16%
17:00 +26°C° 0 mm 2 mps 622 mmHg 20%
18:00 +23°C° 0 mm 1 mps 622 mmHg 24%
19:00 +20°C° 0 mm 1 mps 621 mmHg 28%
20:00 +19°C° 0 mm 1 mps 621 mmHg 29%
21:00 +19°C° 0 mm 1 mps 622 mmHg 31%
22:00 +16°C° 0 mm 0 mps 622 mmHg 32%
23:00 +16°C° 0 mm 1 mps 622 mmHg 33%
Show more